Regional Weather Roundup
Issued by NWS Sioux Falls, SD

Home | Current Version | Previous Version | Graphics & Text | Print | Product List | Glossary On
Versions: 1 2 3 4 5 6 7 8 9 10 11 12 13 14 15 16 17 18 19 20 21 22 23 24 25 26 27 28 29 30 31 32 33 34 35 36 37 38 39 40 41 42 43 44 45 46 47 48 49 50
000
ASUS43 KFSD 210702
RWRFSD

WEATHER ROUNDUP FOR SE SOUTH DAKOTA/SW MINNESOTA/NW IOWA
NATIONAL WEATHER SERVICE SIOUX FALLS SD
100 AM CST SUN JAN 21 2018

NOTE: "FAIR" INDICATES FEW OR NO CLOUDS BELOW 12,000 FEET WITH NO
SIGNIFICANT WEATHER AND OR OBSTRUCTIONS TO VISIBILITY.


SDZ038>040-050-052>070-210800-
SOUTHEAST SOUTH DAKOTA

CITY           SKY/WX    TMP DP  RH WIND       PRES   REMARKS
BROOKINGS      CLOUDY    34  30  85 N6        29.94  WCI  29
CHAMBERLAIN    CLOUDY    38  34  87 N7        29.95S
HURON          CLOUDY    34  32  92 N6        29.96S WCI  29
MADISON        CLOUDY    34  34 100 N3        29.94S
MITCHELL       CLOUDY    35  33  92 N5        29.96F
SIOUX FALLS    CLOUDY    33  29  85 N6        29.93S WCI  28
WINNER         CLOUDY    36  33  89 N7        29.95S
YANKTON        CLOUDY    27  25  92 N3        29.91F
$$

MNZ071-072-080-081-089-090-097-098-210800-
SOUTHWEST MINNESOTA

CITY           SKY/WX    TMP DP  RH WIND       PRES   REMARKS
FAIRMONT       CLOUDY    30  29  96 CALM      29.93S
JACKSON        CLOUDY    32  30  93 VRB5      29.92S WCI  27
LUVERNE        CLOUDY    32  28  86 CALM      29.93S
MARSHALL       CLOUDY    35  29  78 NW6       29.96S
MONTEVIDEO     CLOUDY    37  30  75 N6        29.94F
PIPESTONE      CLOUDY    34  28  80 NE5       29.93R WCI  30
REDWOOD FALLS  CLOUDY    35  30  82 W3        29.94F
TRACY          CLOUDY    36  31  82 NW3       29.94S
WINDOM         CLOUDY    34  19  55 N8        29.93S WCI  27
WORTHINGTON    CLOUDY    31  28  89 N6        29.93S WCI  25
$$

IAZ001>003-012>014-020>022-031-032-NEZ013-014-SDZ071-210800-
NORTHWEST IOWA

CITY           SKY/WX    TMP DP  RH WIND       PRES   REMARKS
DENISON        CLOUDY    34  32  93 N5        29.89S WCI  30
ESTHERVILLE    CLOUDY    29  29 100 N5        29.92R WCI  24
LE MARS        CLOUDY    27  27 100 NE5       29.91S WCI  21
ORANGE CITY    CLOUDY    34  30  86 NE5       29.91S WCI  30
SHELDON        CLOUDY    30  30 100 NE9       29.90S WCI  22
SIOUX CITY     CLOUDY    35  31  85 SW7       29.88F WCI  29
SPENCER        CLOUDY    30  27  88 N6        29.92S WCI  24
STORM LAKE     CLOUDY    32  30  93 N9        29.88F WCI  24
$$

ABBREVIATIONS USED IN REMARKS
   TC - TEMPERATURE IN CELSIUS
  WCI - WIND CHILL INDEX
   HX - HEAT INDEX
  VSB - VISIBILITY





USA.gov is the U.S. government's official web portal to all federal, state and local government web resources and services.